Location: Esquiule
(43.2000°N, 0.7167°W)
Time: 10:09:41
(UTC+00:00)

Daily predictions for brighter satellites

Satellite Brightness Start Highest point End
(mag) Time Altitude Azimuth Time Altitude Azimuth Time Altitude Azimuth
PAYLOAD B 4.3 20:07:26 10° SSE 20:13:00 78° ENE 20:18:37 10° NNW
Cosmos 2279 Rocket 4.3 20:12:06 10° SSW 20:18:19 74° W 20:24:35 10° N
Cosmos 1812 Rocket 4.1 20:16:48 10° SSW 20:21:12 66° W 20:25:37 10° N
Terra 1.9 20:20:23 10° SSE 20:25:04 86° WSW 20:29:49 10° NNW
CENTAUR R/B 2.7 20:20:55 10° SW 20:26:14 74° NW 20:33:03 10° NE
Cosmos 44 Rocket 3.7 20:24:03 10° NNW 20:29:09 57° NE 20:34:01 10° SE
Meteor 1-27 Rocket 3.7 20:26:18 10° S 20:31:55 84° E 20:37:28 10° NNE
Cosmos 2208 Rocket 4.2 20:28:31 10° S 20:33:29 48° ESE 20:38:26 10° NNE
CZ-3 Stage 3 4.0 20:30:08 10° WSW 20:34:19 14° SW 20:36:59 10° SSW
BREEZE-M DEB (TANK) 4.4 20:33:26 10° WNW 20:36:00 22° N 20:37:44 10° NE
SKYMED 3 4.4 20:34:38 10° NNE 20:38:39 86° WNW 20:42:37 10° SSW
Aureole 2 4.2 20:36:19 10° SSW 20:39:14 69° WNW 20:42:04 10° NNE
Cosmos 2082 4.2 20:36:36 10° SW 20:42:10 65° WNW 20:47:46 10° NNE
MetOp-B 4.5 20:37:07 10° S 20:42:26 67° WSW 20:47:46 10° NNW
Meteor 1-11 Rocket 4.3 20:37:20 10° NNW 20:42:44 57° W 20:48:10 10° S
Cosmos 2227 4.3 20:37:40 10° S 20:43:17 60° ESE 20:48:57 10° NNE
YAOGAN 11 4.3 20:40:20 10° NNE 20:44:40 50° E 20:48:56 10° S
Meteor 2-20 Rocket 4.4 20:40:15 10° S 20:45:56 65° E 20:51:51 10° NNE
CZ-4 R/B 3.2 20:43:11 10° SSW 20:46:21 26° W 20:49:36 10° NW
Cosmos 2263 Rocket 4.4 20:41:39 10° WSW 20:46:27 29° NW 20:51:16 10° N
Ariane Rocket 4.1 20:44:08 12° ESE 20:48:07 30° ENE 20:52:29 10° N
Okean-O 2.6 20:44:49 11° SSE 20:49:02 71° ENE 20:53:24 10° N
Cosmos 2266 Rocket 4.1 20:43:34 10° N 20:49:49 82° W 20:56:08 10° S
Helios 1A Rocket 2.9 20:47:36 10° N 20:50:40 55° WNW 20:53:42 10° SSW
Spot 2 Rocket 3.5 20:45:49 10° SSE 20:50:51 86° ENE 20:55:58 10° NNW
NOSS 3-2 (A) 3.0 20:49:14 10° SSW 20:54:01 64° ESE 20:59:40 10° NE
CZ-4B R/B 3.7 20:48:44 10° S 20:54:06 58° W 20:59:25 10° NNW
Cosmos 1842 Rocket 3.6 20:51:50 10° S 20:56:13 64° E 21:00:36 10° NNE
Cosmos 1340 Rocket 3.8 20:54:25 10° NNE 20:57:42 28° ENE 20:59:47 17° ESE
USA 215 4.5 20:52:37 10° E 20:58:27 37° NNE 21:04:20 10° NW
Cosmos 773 Rocket 4.1 20:53:20 10° SSW 20:58:27 82° WNW 21:03:39 10° NNE
Cosmos 1603 4.2 20:53:46 10° NNW 20:59:21 49° ENE 21:03:42 16° SE
BREEZE-M DEB (TANK) 0.7 20:59:09 10° WNW 21:01:18 89° N 21:02:13 26° ESE
ADEOS 4.2 20:56:15 10° S 21:01:19 55° W 21:06:27 10° NNW
OAO 3 Rocket 4.0 20:59:41 10° WSW 21:03:36 29° S 21:05:58 18° SE
Cosmos 1570 Rocket 4.5 20:58:22 10° SSW 21:03:39 66° WNW 21:08:59 10° NNE
USA 245 3.6 21:03:10 19° SE 21:05:38 44° ENE 21:08:45 10° N
Cosmos 1844 Rocket 2.6 21:00:08 10° SSW 21:05:42 89° ESE 21:11:18 10° NNE
EXPRESS MD2 2.8 21:02:12 10° WNW 21:06:35 76° SSW 21:08:14 24° SE
SL-14 R/B 3.1 21:06:08 15° S 21:09:05 60° E 21:12:45 10° NNE
Meteor 2-10 Rocket 3.8 21:03:59 10° N 21:09:50 88° ENE 21:14:48 14° S
Cosmos 1238 Rocket 4.1 21:05:44 10° SSW 21:10:29 53° W 21:15:10 10° N
CZ-4C R/B 3.2 21:08:23 10° NW 21:15:37 74° WSW 21:22:42 17° SSE
Cosmos 1151 Rocket 3.6 21:14:27 21° SSE 21:16:50 39° E 21:20:52 10° NNE
CZ-2C R/B 3.6 21:23:48 19° E 21:24:13 19° ENE 21:26:19 10° NNE
SL-24 R/B - RUBIN 2 4.3 21:21:56 10° SW 21:26:26 56° NW 21:30:46 10° NNE
Cosmos 1844 4.1 21:21:06 10° SSW 21:26:51 70° WNW 21:32:40 10° NNE
CZ-4B R/B 3.6 21:24:45 22° SSE 21:27:57 63° ENE 21:33:04 10° N
Okean O Rocket 2.6 21:24:41 12° S 21:28:28 42° W 21:32:37 10° NNW
Cosmos 1953 4.2 21:26:52 10° NE 21:28:44 14° ENE 21:29:35 13° E
OAO 2 Rocket 4.1 21:28:46 10° SW 21:33:21 31° S 21:35:03 25° SE
In-Cosmos 22 4.3 21:27:57 10° S 21:33:42 88° W 21:39:30 10° N
NOSS 3-2 (C) 3.2 21:31:30 14° S 21:35:26 48° ESE 21:40:52 10° NE
BlueWalker 3 4.1 21:36:38 10° WSW 21:38:09 12° SW 21:39:18 11° SSW
NOSS 2-3 (C) 4.5 21:42:37 21° E 21:42:37 21° E 21:44:27 10° ENE
Cosmos 1943 4.4 21:36:42 10° NW 21:41:45 35° WSW 21:46:00 14° SSW
USA 186 3.3 21:41:05 15° SW 21:42:00 18° W 21:43:44 10° NW
Cosmos 1461 2.3 21:40:34 10° NNW 21:44:05 78° ENE 21:45:06 43° SE
CZ-4B R/B 2.9 21:42:34 28° S 21:44:26 69° WSW 21:48:22 10° NNW
ATLAS 2AS CENTAUR R/B 4.3 21:45:07 10° WNW 21:50:22 24° WSW 21:55:35 10° SSW
Cosmos 2298 Rocket 4.5 21:47:56 10° NNW 21:53:06 55° WSW 21:56:10 24° S
Cosmos 2344 4.0 21:48:48 20° S 21:53:41 39° ESE 22:00:15 10° NE
Sich 1 3.8 21:50:57 10° NNW 21:55:03 46° W 21:57:32 21° SSW
Cosmos 1500 Rocket 3.4 21:50:44 10° N 21:55:05 84° E 21:56:47 36° SSE
Helios 1A 4.1 21:54:07 10° NE 21:57:24 25° E 21:57:27 25° E
Iridium 4 Rocket 3.7 21:55:05 30° SSE 21:57:44 62° E 22:02:48 10° N
Helios 1B rocket 4.4 21:57:42 11° ENE 21:58:25 12° ENE 21:59:46 10° NE
BREEZE-M R/B 4.0 21:57:27 31° S 21:59:01 40° SE 22:06:15 10° ENE
GP-B 3.0 21:55:19 10° N 21:59:42 76° E 22:01:23 37° S
Cosmos 1607 4.0 21:55:38 10° NNW 22:02:04 79° NE 22:05:32 29° SE
Cosmos 1241 Rocket 4.5 22:02:40 23° S 22:06:32 58° ESE 22:12:37 10° NE
Cosmos 1758 4.4 22:04:11 10° NNW 22:07:32 33° W 22:09:09 23° SW
NOSS 2-3 (D) 3.0 22:07:04 31° SSW 22:08:44 85° SE 22:12:29 10° NE
Cosmos 2285 Rocket 4.0 22:03:22 10° NNW 22:09:45 83° WSW 22:13:01 31° SSE
Cosmos 1538 Rocket 3.9 22:11:36 33° S 22:13:53 69° ESE 22:19:05 10° NNE
Cosmos 2315 Rocket 4.4 22:13:38 31° SE 22:16:02 45° E 22:21:55 10° NNE
Milstar 3 Cent rocket 4.1 22:13:24 10° SW 22:13:38 11° SW 22:13:38 11° SW
Cosmos 1943 Rocket 3.3 22:16:33 25° ESE 22:17:02 25° ESE 22:21:33 10° NE
Cosmos 1386 Rocket 4.5 22:11:02 10° N 22:17:28 87° E 22:20:34 33° S
Iridium 45 4.2 22:18:34 68° NE 22:18:34 68° NE 22:21:23 10° N
Cosmos 1328 Rocket 3.7 22:24:40 49° SE 22:25:22 55° E 22:29:38 10° NNE
Ariane Rocket 4.2 22:24:12 21° SSW 22:26:52 35° W 22:31:31 10° NNW
Lacrosse 5 rocket 2.3 22:30:44 28° ENE 22:30:44 28° ENE 22:32:40 10° NE
CZ-4B R/B 4.5 22:31:01 10° NNE 22:35:30 87° ESE 22:36:35 51° SSW
NOSS 2-3 (E) 4.1 22:33:45 16° WSW 22:36:23 47° NW 22:40:02 10° NNE
Cosmos 1666 Rocket 3.5 22:32:27 10° N 22:36:48 70° E 22:37:29 58° SE
Cosmos 1703 4.1 22:37:13 30° W 22:37:43 32° WNW 22:40:37 10° NNW
USA 215 3.2 22:37:29 30° SE 22:41:01 87° NE 22:47:35 10° NW
Cosmos 1743 Rocket 4.3 22:39:33 10° NNW 22:43:41 44° W 22:44:49 36° SW
GEOS 3 Rocket 4.3 22:45:16 27° ESE 22:47:58 50° NE 22:53:10 10° NNW
S3M 4.0 22:48:41 34° SSW 22:51:28 77° W 22:57:37 10° N
Meteor 1-22 Rocket 4.5 22:48:55 10° NNW 22:54:04 53° W 22:55:47 37° SSW
Cosmos 1515 Rocket 3.9 22:55:38 46° E 22:55:44 46° E 22:59:55 10° NNE
Meteor 1-15 Rocket 4.3 22:53:36 10° NNW 22:59:25 74° W 23:01:13 45° S
USA 59 Rocket 1.6 23:01:29 17° ENE 23:01:29 17° ENE 23:02:24 10° NE
Spot 4 4.3 22:59:30 43° ESE 23:00:33 52° ENE 23:05:14 10° N
ARGOS Delta rocket 4.0 22:55:40 10° NNE 23:01:03 78° E 23:02:18 53° S
Cosmos 1833 Rocket 2.7 22:57:30 10° NNW 23:03:08 72° WSW 23:04:36 50° S
Cosmos 1953 3.1 23:00:31 10° NNW 23:03:47 35° W 23:03:47 35° W
Cosmos 1709 Rocket 4.1 23:00:47 10° NNW 23:07:06 69° W 23:09:28 40° SSW
Meteor 1-16 Rocket 4.1 23:01:38 10° N 23:07:11 86° E 23:08:42 51° SSE
Cosmos 2082 Rocket 3.7 23:03:53 10° N 23:08:43 28° NE 23:11:51 17° E
Okean 3 4.2 23:09:18 37° ENE 23:09:18 37° ENE 23:12:37 10° NNE
Meteor 1-23 Rocket 4.2 23:07:55 44° SSW 23:09:45 77° W 23:15:21 10° N
Cosmos 2278 Rocket 2.4 23:09:54 48° SE 23:10:46 53° ESE 23:16:16 10° NNE
Cosmos 1633 Rocket 3.3 23:10:18 10° NNW 23:14:35 54° W 23:15:02 51° WSW
Cosmos 1680 Rocket 3.4 23:22:43 58° SSW 23:23:47 90° ESE 23:29:00 10° NNE
Cosmos 494 Rocket 3.9 23:24:39 61° S 23:25:31 79° ESE 23:30:47 10° NNE
Cosmos 1400 Rocket 3.2 23:22:17 10° N 23:25:30 49° NE 23:25:30 49° NE
Cosmos 1624 Rocket 4.1 23:20:45 10° NNW 23:26:02 67° ENE 23:27:15 51° SE
CZ-2C R/B 3.5 23:23:35 10° NNE 23:28:54 47° E 23:29:38 44° ESE
Helios 1B rocket 3.0 23:31:35 39° WNW 23:31:35 39° WNW 23:34:16 10° NNW
Meteor 1-12 Rocket 4.2 23:26:39 10° NNW 23:32:21 83° W 23:33:43 54° S
Cosmos 2056 Rocket 3.4 23:27:39 10° NNW 23:32:47 79° ENE 23:33:39 61° SE
ARIANE 5 R/B 2.6 23:36:34 68° SW 23:36:48 69° WSW 23:41:14 10° NNW
USA 238 DEB 3.4 23:36:16 40° SW 23:38:43 87° NW 23:45:24 10° NE
USA 238 3.4 23:36:31 40° SW 23:38:56 87° NW 23:45:37 10° NE
ACS3 Solar Sail 2.7 23:37:04 10° NNE 23:42:04 30° E 23:43:12 28° ESE
Okean 2 4.2 23:42:05 38° W 23:42:08 38° WNW 23:45:45 10° N
Cosmos 1470 Rocket 4.4 23:42:18 10° NNW 23:46:25 37° W 23:46:41 37° W
BREEZE-M DEB (TANK) 4.4 23:34:20 10° W 23:48:32 52° N 23:52:52 10° ENE
ALOS 2 2.7 23:49:18 59° WSW 23:49:22 59° W 23:53:43 10° NNW
Cosmos 1441 Rocket 4.0 23:54:17 41° N 23:54:17 41° N 23:56:31 10° N
Cosmos 1933 Rocket 3.5 23:49:36 10° NNW 23:53:53 74° W 23:53:53 74° W
Cosmos 2369 Rocket 4.0 23:55:37 16° ESE 23:56:12 16° E 23:59:31 10° ENE
